Location: Windsor
(43.2292°N, 89.3015°W)
Time: 08:58:59
(UTC+00:00)

Tiros 1 - Pass Details

Date: 28 May 2022
Orbit: 629 x 663 km, 48.4° (Epoch: 04 July)

Event Time Altitude Azimuth Distance (km) Brightness Sun altitude
Exits shadow 06:36:55 86° 345° (NNW) 638 7.0 -24.6°
Drops below altitude 10° 06:41:34 10° 65° (ENE) 2,022 10.1 -24.4°
Sets 06:43:54 0° 66° (ENE) 2,938 11.0 -24.3°
